When you browse on this site, cookies collect data to enhance your experience and personalize the content and advertising you see.
Visit our Privacy Policy to learn more. By continuing to use the site, you agree to this use of cookies and data.
  • In Latvia
  • List of Countries
  • For 7 days
  • Water Temperature
  • Weather Map
  • Weather Widgets
  • user-avatar
    Login

    Hourly Weather Mayrhofen

    Today, 26 January, Sunday

    Time Temperature Precipitation Wind Pressure Humidity
    00:00 -3°C° 0 mm 1 mps 616 mmHg 86%
    01:00 -5°C° 0 mm 2 mps 616 mmHg 87%
    02:00 -3°C° 0 mm 1 mps 616 mmHg 87%
    03:00 -3°C° 0 mm 1 mps 615 mmHg 87%
    04:00 -3°C° 0 mm 1 mps 615 mmHg 87%
    05:00 -3°C° 0 mm 1 mps 615 mmHg 87%
    06:00 -3°C° 0 mm 1 mps 615 mmHg 88%
    07:00 -3°C° 0 mm 1 mps 615 mmHg 88%
    08:00 -2°C° 0 mm 1 mps 616 mmHg 87%
    09:00 -1°C° 0 mm 1 mps 616 mmHg 85%
    10:00 -1°C° 0 mm 1 mps 617 mmHg 84%
    11:00 -1°C° 0 mm 0 mps 616 mmHg 84%
    12:00 -1°C° 0 mm 0 mps 616 mmHg 83%
    13:00 0°C° 0 mm 0 mps 616 mmHg 83%
    14:00 -1°C° 0 mm 0 mps 616 mmHg 84%
    15:00 -1°C° 0 mm 0 mps 615 mmHg 86%
    16:00 -1°C° 0 mm 0 mps 615 mmHg 87%
    17:00 -2°C° 0 mm 0 mps 615 mmHg 88%
    18:00 -3°C° 0 mm 0 mps 614 mmHg 88%
    19:00 -3°C° 0 mm 1 mps 614 mmHg 88%
    20:00 -3°C° 0 mm 1 mps 614 mmHg 86%
    21:00 -4°C° 0 mm 1 mps 614 mmHg 84%
    22:00 -4°C° 0 mm 1 mps 614 mmHg 82%
    23:00 -4°C° 0 mm 1 mps 614 mmHg 81%

    Tomorrow, 27 January, Monday

    Time Temperature Precipitation Wind Pressure Humidity
    00:00 -4°C° 0 mm 1 mps 614 mmHg 80%
    01:00 -4°C° 0 mm 1 mps 614 mmHg 79%
    02:00 -4°C° 0 mm 1 mps 614 mmHg 78%
    03:00 -4°C° 0 mm 1 mps 614 mmHg 78%
    04:00 -4°C° 0 mm 1 mps 614 mmHg 77%
    05:00 -4°C° 0 mm 1 mps 614 mmHg 77%
    06:00 -4°C° 0 mm 1 mps 614 mmHg 76%
    07:00 -4°C° 0 mm 1 mps 614 mmHg 75%
    08:00 -3°C° 0 mm 1 mps 614 mmHg 73%
    09:00 -2°C° 0 mm 1 mps 615 mmHg 71%
    10:00 -1°C° 0 mm 1 mps 615 mmHg 69%
    11:00 0°C° 0 mm 1 mps 615 mmHg 68%
    12:00 +1°C° 0 mm 1 mps 615 mmHg 68%
    13:00 +2°C° 0 mm 1 mps 614 mmHg 68%
    14:00 +1°C° 0 mm 1 mps 614 mmHg 71%
    15:00 -2°C° 0 mm 2 mps 613 mmHg 74%
    16:00 -2°C° 0 mm 2 mps 613 mmHg 76%
    17:00 -3°C° 0 mm 2 mps 612 mmHg 78%
    18:00 -5°C° 0 mm 3 mps 612 mmHg 80%
    19:00 -6°C° 0 mm 3 mps 611 mmHg 82%
    20:00 -6°C° 0 mm 3 mps 611 mmHg 83%
    21:00 -6°C° 0 mm 3 mps 611 mmHg 85%
    22:00 -6°C° 0 mm 3 mps 611 mmHg 87%
    23:00 -6°C° 0.1 mm 3 mps 610 mmHg 87%

    Day after tomorrow, 28 January, Tuesday

    Time Temperature Precipitation Wind Pressure Humidity
    00:00 -6°C° 0.1 mm 3 mps 610 mmHg 87%
    01:00 -6°C° 0.1 mm 3 mps 609 mmHg 87%
    02:00 -6°C° 0.1 mm 3 mps 608 mmHg 87%
    03:00 -6°C° 0.1 mm 3 mps 608 mmHg 87%
    04:00 -6°C° 0.1 mm 3 mps 607 mmHg 87%
    05:00 -6°C° 0.1 mm 3 mps 607 mmHg 86%
    06:00 -6°C° 0.1 mm 3 mps 607 mmHg 86%
    07:00 -7°C° 0.1 mm 3 mps 606 mmHg 86%
    08:00 -5°C° 0.1 mm 2 mps 606 mmHg 86%
    09:00 -4°C° 0.1 mm 2 mps 606 mmHg 87%
    10:00 -4°C° 0.1 mm 2 mps 605 mmHg 87%
    11:00 -3°C° 1 mm 2 mps 605 mmHg 90%
    12:00 -3°C° 1 mm 2 mps 605 mmHg 92%
    13:00 -3°C° 1 mm 2 mps 604 mmHg 95%
    14:00 -4°C° 2.1 mm 2 mps 604 mmHg 93%
    15:00 -6°C° 2.1 mm 3 mps 604 mmHg 91%
    16:00 -7°C° 2.1 mm 3 mps 604 mmHg 90%
    17:00 -9°C° 0.4 mm 3 mps 604 mmHg 88%
    18:00 -10°C° 0.4 mm 3 mps 605 mmHg 86%
    19:00 -10°C° 0.4 mm 2 mps 605 mmHg 85%
    20:00 -12°C° 0 mm 2 mps 605 mmHg 83%
    21:00 -12°C° 0 mm 2 mps 605 mmHg 82%
    22:00 -13°C° 0 mm 2 mps 605 mmHg 80%
    23:00 -13°C° 0 mm 2 mps 605 mmHg 77%

    29 January, Wednesday

    Time Temperature Precipitation Wind Pressure Humidity
    00:00 -13°C° 0 mm 2 mps 605 mmHg 74%
    01:00 -13°C° 0 mm 2 mps 605 mmHg 71%
    02:00 -13°C° 0.1 mm 2 mps 606 mmHg 73%
    03:00 -12°C° 0.1 mm 2 mps 606 mmHg 76%
    04:00 -10°C° 0.1 mm 2 mps 606 mmHg 79%
    05:00 -10°C° 0.1 mm 2 mps 606 mmHg 81%
    06:00 -10°C° 0.1 mm 2 mps 606 mmHg 82%
    07:00 -10°C° 0.1 mm 2 mps 606 mmHg 84%
    08:00 -9°C° 0.4 mm 2 mps 607 mmHg 84%
    09:00 -8°C° 0.4 mm 2 mps 607 mmHg 84%
    10:00 -8°C° 0.4 mm 2 mps 608 mmHg 85%
    11:00 -7°C° 0.7 mm 2 mps 608 mmHg 82%
    12:00 -6°C° 0.7 mm 2 mps 608 mmHg 79%
    13:00 -7°C° 0.7 mm 3 mps 609 mmHg 76%
    14:00 -6°C° 0.8 mm 2 mps 609 mmHg 80%
    15:00 -7°C° 0.8 mm 2 mps 609 mmHg 84%
    16:00 -7°C° 0.8 mm 2 mps 609 mmHg 87%
    17:00 -8°C° 0.6 mm 2 mps 609 mmHg 90%
    18:00 -7°C° 0.6 mm 1 mps 610 mmHg 92%
    19:00 -8°C° 0.6 mm 1 mps 610 mmHg 94%
    20:00 -9°C° 0.8 mm 2 mps 610 mmHg 95%
    21:00 -9°C° 0.8 mm 2 mps 611 mmHg 95%
    22:00 -9°C° 0.8 mm 2 mps 611 mmHg 95%
    23:00 -10°C° 0.7 mm 2 mps 612 mmHg 95%

    30 January, Thursday

    Time Temperature Precipitation Wind Pressure Humidity
    00:00 -10°C° 0.7 mm 2 mps 612 mmHg 94%
    01:00 -9°C° 0.7 mm 1 mps 612 mmHg 94%
    02:00 -9°C° 0.4 mm 1 mps 613 mmHg 94%
    03:00 -10°C° 0.4 mm 1 mps 613 mmHg 94%
    04:00 -10°C° 0.4 mm 1 mps 613 mmHg 94%
    05:00 -11°C° 0 mm 1 mps 613 mmHg 90%
    06:00 -13°C° 0 mm 2 mps 613 mmHg 86%
    07:00 -14°C° 0 mm 2 mps 613 mmHg 83%
    08:00 -10°C° 0 mm 1 mps 614 mmHg 76%
    09:00 -8°C° 0 mm 1 mps 615 mmHg 70%
    10:00 -6°C° 0 mm 1 mps 616 mmHg 64%
    11:00 -3°C° 0 mm 1 mps 616 mmHg 64%
    12:00 -2°C° 0 mm 1 mps 616 mmHg 63%
    13:00 0°C° 0 mm 1 mps 616 mmHg 63%
    14:00 -1°C° 0 mm 1 mps 615 mmHg 68%
    15:00 -1°C° 0 mm 1 mps 615 mmHg 72%
    16:00 -1°C° 0 mm 1 mps 615 mmHg 77%
    17:00 -3°C° 0 mm 1 mps 614 mmHg 71%
    18:00 -4°C° 0 mm 1 mps 614 mmHg 66%
    19:00 -6°C° 0 mm 1 mps 614 mmHg 60%
    20:00 -6°C° 0 mm 1 mps 614 mmHg 58%
    21:00 -6°C° 0 mm 1 mps 614 mmHg 55%
    22:00 -6°C° 0 mm 1 mps 614 mmHg 53%
    23:00 -6°C° 0 mm 1 mps 614 mmHg 52%

    31 January, Friday

    Time Temperature Precipitation Wind Pressure Humidity
    00:00 -4°C° 0 mm 1 mps 614 mmHg 52%
    01:00 -4°C° 0 mm 1 mps 614 mmHg 51%
    02:00 -3°C° 0 mm 1 mps 614 mmHg 51%
    03:00 -3°C° 0 mm 1 mps 614 mmHg 51%
    04:00 -2°C° 0 mm 1 mps 614 mmHg 51%
    05:00 -2°C° 0 mm 1 mps 614 mmHg 52%
    06:00 -2°C° 0 mm 1 mps 614 mmHg 54%
    07:00 -2°C° 0 mm 1 mps 614 mmHg 55%
    08:00 -1°C° 0.1 mm 1 mps 615 mmHg 63%
    09:00 0°C° 0.1 mm 1 mps 615 mmHg 71%
    10:00 +1°C° 0.1 mm 1 mps 616 mmHg 79%
    11:00 +2°C° 0.1 mm 1 mps 616 mmHg 83%
    12:00 +2°C° 0.1 mm 1 mps 616 mmHg 88%
    13:00 +1°C° 0.1 mm 0 mps 616 mmHg 93%
    14:00 +2°C° 0 mm 1 mps 616 mmHg 94%
    15:00 +2°C° 0 mm 1 mps 616 mmHg 94%
    16:00 +2°C° 0 mm 1 mps 616 mmHg 95%
    17:00 +1°C° 0 mm 1 mps 616 mmHg 95%
    18:00 +1°C° 0 mm 1 mps 616 mmHg 94%
    19:00 0°C° 0 mm 1 mps 616 mmHg 94%
    20:00 0°C° 0 mm 1 mps 616 mmHg 93%
    21:00 0°C° 0 mm 1 mps 616 mmHg 92%
    22:00 0°C° 0 mm 1 mps 616 mmHg 92%
    23:00 0°C° 0 mm 1 mps 616 mmHg 90%
    Show more